Location: Berlin
(52.5200°N, 13.4050°E)
Time: 06:40:57
(UTC+01:00)

ISS - Visible Passes

Search period start: 21 March 2023 00:00
Search period end: 31 March 2023 01:00
Orbit: 414 x 423 km, 51.6° (Epoch: 20 March)

Date Brightness Start Highest point End Pass type
(mag) Time Alt. Az. Time Alt. Az. Time Alt. Az.
21 Mar -3.5 19:29:02 10° WSW 19:32:19 54° SSE 19:34:27 19° E visible
21 Mar -1.9 21:05:39 10° W 21:07:24 28° W 21:07:24 28° W visible
22 Mar -3.9 20:17:52 10° W 20:21:13 78° S 20:21:37 65° ESE visible
23 Mar -3.8 19:30:04 10° WSW 19:33:24 73° S 19:35:46 18° E visible
23 Mar -2.1 21:06:48 10° W 21:08:42 31° W 21:08:42 31° W visible
24 Mar -3.8 20:18:57 10° W 20:22:18 73° S 20:22:47 59° SE visible
25 Mar -3.8 19:31:03 10° W 19:34:26 78° S 19:36:49 18° E visible
25 Mar -2.0 21:07:51 10° W 21:09:45 28° WSW 21:09:45 28° WSW visible
26 Mar -3.5 21:19:55 10° W 21:23:11 53° SSW 21:23:45 46° SSE visible
27 Mar -3.6 20:31:58 10° W 20:35:18 64° SSW 20:37:44 17° ESE visible
27 Mar -1.6 22:08:57 10° W 22:10:40 20° WSW 22:10:40 20° WSW visible
28 Mar -2.6 21:20:50 10° W 21:23:53 32° SSW 21:24:39 28° S visible
29 Mar -2.9 20:32:46 10° W 20:35:58 42° SSW 20:38:37 14° SE visible
29 Mar -1.0 22:10:39 10° WSW 22:11:33 12° SW 22:11:33 12° SW visible
30 Mar -1.6 21:21:58 10° W 21:24:18 18° SW 21:25:33 15° S visible
